timestamp,wind_dir_avg,wind_spd_avg,wind_spd_max_dir,wind_spd_gust,battery_voltage,lat,long
2021-08-04 00:04:01+00:00,234.0,7.81,240.0,9.13,13.05,47.59359,-54.27349
2021-08-04 00:14:01+00:00,237.0,8.96,242.0,10.26,12.65,47.59359,-54.27349
2021-08-04 00:24:01+00:00,246.0,9.44,242.0,10.71,12.65,47.59359,-54.27349
2021-08-04 00:34:01+00:00,237.0,9.87,239.0,11.02,12.65,47.59359,-54.27349
2021-08-04 00:44:01+00:00,235.0,10.15,231.0,11.76,12.65,47.59359,-54.27349
2021-08-04 00:54:01+00:00,238.0,9.25,238.0,10.4,12.65,47.59359,-54.27349
2021-08-04 01:04:01+00:00,244.0,8.74,246.0,9.47,12.65,47.59359,-54.27349
2021-08-04 01:14:01+00:00,249.0,8.25,250.0,9.09,12.65,47.59359,-54.27349
2021-08-04 01:24:01+00:00,241.0,7.98,239.0,8.9,12.65,47.59359,-54.27349
2021-08-04 01:34:01+00:00,233.0,7.58,228.0,8.71,12.65,47.59359,-54.27349
2021-08-04 01:44:01+00:00,227.0,8.44,225.0,9.66,12.65,47.59359,-54.27349
2021-08-04 01:54:01+00:00,219.0,8.91,221.0,10.22,12.65,47.59359,-54.27349
2021-08-04 02:04:01+00:00,227.0,7.49,226.0,8.14,12.65,47.59359,-54.27349
2021-08-04 02:14:00+00:00,232.0,8.27,233.0,9.83,12.65,47.59359,-54.27349
2021-08-04 02:24:00+00:00,231.0,7.18,232.0,8.14,12.65,47.59359,-54.27349
2021-08-04 02:34:00+00:00,229.0,7.23,234.0,8.85,12.65,47.59359,-54.27349
2021-08-04 02:44:00+00:00,228.0,7.13,229.0,8.4,12.65,47.59359,-54.27349
2021-08-04 02:54:00+00:00,235.0,4.88,237.0,5.98,12.65,47.59359,-54.27349
2021-08-04 03:04:00+00:00,248.0,6.47,247.0,7.33,12.65,47.59359,-54.27349
2021-08-04 03:14:01+00:00,239.0,7.77,235.0,8.41,12.57,47.59359,-54.27349
2021-08-04 03:24:01+00:00,232.0,6.84,230.0,7.88,12.57,47.59359,-54.27349
2021-08-04 03:34:01+00:00,226.0,7.39,228.0,8.24,12.57,47.59359,-54.27349
2021-08-04 03:44:01+00:00,222.0,6.67,225.0,7.44,12.57,47.59359,-54.27349
2021-08-04 03:54:01+00:00,215.0,7.95,221.0,9.17,12.57,47.59359,-54.27349
2021-08-04 04:04:01+00:00,212.0,7.65,214.0,8.62,12.57,47.59359,-54.27349
2021-08-04 04:14:01+00:00,212.0,7.64,213.0,8.9,12.65,47.59359,-54.27349
2021-08-04 04:24:01+00:00,217.0,7.98,220.0,9.45,12.65,47.59359,-54.27349
2021-08-04 04:34:01+00:00,221.0,7.97,221.0,9.16,12.65,47.59359,-54.27349
2021-08-04 04:44:01+00:00,221.0,7.25,219.0,8.11,12.65,47.59359,-54.27349
2021-08-04 04:54:01+00:00,220.0,7.73,221.0,8.93,12.65,47.59359,-54.27349
2021-08-04 05:04:01+00:00,222.0,6.04,221.0,7.4,12.65,47.59359,-54.27349
2021-08-04 05:14:01+00:00,223.0,7.15,225.0,8.27,12.57,47.59359,-54.27349
2021-08-04 05:24:01+00:00,222.0,6.98,224.0,7.83,12.57,47.59359,-54.27349
2021-08-04 05:34:01+00:00,224.0,6.63,222.0,7.48,12.57,47.59359,-54.27349
2021-08-04 05:44:01+00:00,230.0,6.12,238.0,7.34,12.57,47.59359,-54.27349
2021-08-04 05:54:01+00:00,237.0,6.57,243.0,7.3,12.57,47.59359,-54.27349
2021-08-04 06:04:01+00:00,214.0,5.3,217.0,6.57,12.57,47.59359,-54.27349
2021-08-04 06:14:00+00:00,228.0,5.05,237.0,6.12,12.57,47.59359,-54.27349
2021-08-04 06:24:00+00:00,228.0,4.85,220.0,5.87,12.57,47.59359,-54.27349
2021-08-04 06:34:00+00:00,233.0,6.09,234.0,7.1,12.57,47.59359,-54.27349
2021-08-04 06:44:00+00:00,230.0,6.12,230.0,7.34,12.57,47.59359,-54.27349
2021-08-04 06:54:00+00:00,225.0,6.42,226.0,7.46,12.57,47.59359,-54.27349
2021-08-04 07:04:00+00:00,241.0,5.73,245.0,7.55,12.57,47.59359,-54.27349
2021-08-04 07:14:00+00:00,233.0,5.48,238.0,6.75,12.57,47.59359,-54.27349
2021-08-04 07:24:00+00:00,232.0,6.55,231.0,7.9,12.57,47.59359,-54.27349
2021-08-04 07:34:00+00:00,234.0,6.27,239.0,6.9,12.57,47.59359,-54.27349
2021-08-04 07:44:00+00:00,238.0,6.12,239.0,6.95,12.57,47.59359,-54.27349
2021-08-04 07:54:00+00:00,227.0,6.58,230.0,7.57,12.57,47.59359,-54.27349
2021-08-04 08:04:00+00:00,229.0,6.5,233.0,7.46,12.57,47.59359,-54.27349
2021-08-04 08:14:01+00:00,225.0,6.58,228.0,7.74,12.49,47.59359,-54.27349
2021-08-04 08:24:01+00:00,229.0,6.65,232.0,7.91,12.49,47.59359,-54.27349
2021-08-04 08:34:01+00:00,233.0,6.92,234.0,7.73,12.49,47.59359,-54.27349
2021-08-04 08:44:01+00:00,228.0,7.23,225.0,8.27,12.49,47.59359,-54.27349
2021-08-04 08:54:01+00:00,219.0,6.9,224.0,7.68,12.49,47.59359,-54.27349
2021-08-04 09:04:01+00:00,226.0,5.77,231.0,6.72,12.49,47.59359,-54.27349
2021-08-04 09:14:01+00:00,220.0,5.85,220.0,6.63,12.49,47.59359,-54.27349
2021-08-04 09:24:01+00:00,215.0,6.17,219.0,7.31,12.49,47.59359,-54.27349
2021-08-04 09:34:01+00:00,211.0,5.17,211.0,5.81,12.49,47.59359,-54.27349
2021-08-04 09:44:01+00:00,212.0,5.94,213.0,6.48,12.49,47.59359,-54.27349
2021-08-04 09:54:01+00:00,208.0,6.22,208.0,7.16,12.49,47.59359,-54.27349
2021-08-04 10:04:01+00:00,209.0,6.41,209.0,7.06,12.49,47.59359,-54.27349
2021-08-04 10:14:01+00:00,212.0,6.2,213.0,6.96,13.44,47.59359,-54.27349
2021-08-04 10:24:01+00:00,211.0,6.26,210.0,7.12,13.44,47.59359,-54.27349
2021-08-04 10:34:01+00:00,211.0,7.38,214.0,8.04,13.44,47.59359,-54.27349
2021-08-04 10:44:01+00:00,215.0,7.32,216.0,7.95,13.44,47.59359,-54.27349
2021-08-04 10:54:01+00:00,212.0,7.98,209.0,9.13,13.44,47.59359,-54.27349
2021-08-04 11:04:01+00:00,216.0,8.36,212.0,9.6,13.44,47.59359,-54.27349
2021-08-04 11:14:01+00:00,215.0,9.18,215.0,10.05,13.84,47.59359,-54.27349
2021-08-04 11:24:01+00:00,213.0,9.3,210.0,10.33,13.84,47.59359,-54.27349
2021-08-04 11:34:01+00:00,209.0,9.66,207.0,10.34,13.84,47.59359,-54.27349
2021-08-04 11:44:01+00:00,208.0,9.45,208.0,10.18,13.84,47.59359,-54.27349
2021-08-04 11:54:01+00:00,203.0,9.29,200.0,10.44,13.84,47.59359,-54.27349
2021-08-04 12:04:01+00:00,203.0,10.74,205.0,11.34,13.84,47.59359,-54.27349
2021-08-04 12:14:01+00:00,209.0,9.93,210.0,10.63,13.84,47.59359,-54.27349
2021-08-04 12:24:01+00:00,207.0,9.82,205.0,11.0,13.84,47.59359,-54.27349
2021-08-04 12:34:01+00:00,205.0,9.6,204.0,10.57,13.84,47.59359,-54.27349
2021-08-04 12:44:01+00:00,203.0,9.14,203.0,10.76,13.84,47.59359,-54.27349
2021-08-04 12:54:01+00:00,201.0,9.23,203.0,10.09,13.84,47.59359,-54.27349
2021-08-04 13:04:01+00:00,199.0,9.34,197.0,10.52,13.84,47.59359,-54.27349
2021-08-04 13:14:01+00:00,201.0,8.92,203.0,9.91,13.84,47.59359,-54.27349
2021-08-04 13:24:01+00:00,204.0,8.8,208.0,9.69,13.84,47.59359,-54.27349
2021-08-04 13:34:01+00:00,200.0,9.33,200.0,10.37,13.84,47.59359,-54.27349
2021-08-04 13:44:01+00:00,203.0,9.83,207.0,10.53,13.84,47.59359,-54.27349
2021-08-04 13:54:01+00:00,204.0,9.89,203.0,11.2,13.84,47.59359,-54.27349
2021-08-04 14:04:01+00:00,204.0,10.75,205.0,11.84,13.84,47.59359,-54.27349
2021-08-04 14:14:01+00:00,207.0,10.23,210.0,11.62,14.0,47.59359,-54.27349
2021-08-04 14:24:01+00:00,207.0,9.87,211.0,11.0,14.0,47.59359,-54.27349
2021-08-04 14:34:01+00:00,207.0,9.75,207.0,10.78,14.0,47.59359,-54.27349
2021-08-04 14:44:01+00:00,209.0,9.39,211.0,11.33,14.0,47.59359,-54.27349
2021-08-04 14:54:01+00:00,205.0,9.82,205.0,10.83,14.0,47.59359,-54.27349
2021-08-04 15:04:01+00:00,206.0,8.22,206.0,9.37,14.0,47.59359,-54.27349
2021-08-04 15:14:01+00:00,213.0,7.66,210.0,8.96,13.92,47.59359,-54.27349
2021-08-04 15:24:01+00:00,206.0,8.33,202.0,9.3,13.92,47.59359,-54.27349
2021-08-04 15:34:01+00:00,204.0,9.01,206.0,10.27,13.92,47.59359,-54.27349
2021-08-04 15:44:01+00:00,213.0,7.91,212.0,8.79,13.92,47.59359,-54.27349
2021-08-04 15:54:01+00:00,217.0,6.91,217.0,8.37,13.92,47.59359,-54.27349
2021-08-04 16:04:01+00:00,229.0,6.89,231.0,7.96,13.92,47.59359,-54.27349
2021-08-04 16:14:01+00:00,235.0,6.45,239.0,7.09,13.92,47.59359,-54.27349
2021-08-04 16:24:01+00:00,251.0,5.15,254.0,5.99,13.92,47.59359,-54.27349
2021-08-04 16:34:01+00:00,253.0,4.96,249.0,5.52,13.92,47.59359,-54.27349
2021-08-04 16:44:01+00:00,242.0,6.53,246.0,7.49,13.92,47.59359,-54.27349
2021-08-04 16:54:01+00:00,248.0,7.92,257.0,10.59,13.92,47.59359,-54.27349
2021-08-04 17:04:01+00:00,259.0,9.11,256.0,10.35,13.92,47.59359,-54.27349
2021-08-04 17:14:01+00:00,256.0,7.04,253.0,7.73,13.84,47.59359,-54.27349
2021-08-04 17:24:01+00:00,255.0,7.72,256.0,8.66,13.84,47.59359,-54.27349
2021-08-04 17:34:01+00:00,257.0,7.54,260.0,8.43,13.84,47.59359,-54.27349
2021-08-04 17:44:01+00:00,246.0,7.14,245.0,7.88,13.84,47.59359,-54.27349
2021-08-04 17:54:01+00:00,247.0,7.05,252.0,7.94,13.84,47.59359,-54.27349
2021-08-04 18:04:01+00:00,245.0,7.23,246.0,8.1,13.84,47.59359,-54.27349
2021-08-04 18:14:01+00:00,242.0,8.07,243.0,8.83,13.92,47.59359,-54.27349
2021-08-04 18:24:01+00:00,248.0,9.09,245.0,10.36,13.92,47.59359,-54.27349
2021-08-04 18:34:01+00:00,236.0,6.69,235.0,8.13,13.92,47.59359,-54.27349
2021-08-04 18:44:01+00:00,246.0,8.07,242.0,8.86,13.92,47.59359,-54.27349
2021-08-04 18:54:01+00:00,235.0,7.69,235.0,8.82,13.92,47.59359,-54.27349
2021-08-04 19:04:01+00:00,237.0,8.18,235.0,9.36,13.92,47.59359,-54.27349
2021-08-04 19:14:01+00:00,238.0,7.31,247.0,8.06,13.84,47.59359,-54.27349
2021-08-04 19:24:01+00:00,245.0,8.65,242.0,10.02,13.84,47.59359,-54.27349
2021-08-04 19:34:01+00:00,248.0,9.24,249.0,10.24,13.84,47.59359,-54.27349
2021-08-04 19:44:01+00:00,249.0,8.46,249.0,9.97,13.84,47.59359,-54.27349
2021-08-04 19:54:01+00:00,252.0,8.71,253.0,9.63,13.84,47.59359,-54.27349
2021-08-04 20:04:01+00:00,252.0,8.48,253.0,9.72,13.84,47.59359,-54.27349
2021-08-04 20:14:01+00:00,250.0,8.95,250.0,10.32,13.76,47.59359,-54.27349
2021-08-04 20:24:01+00:00,246.0,7.97,245.0,8.73,13.76,47.59359,-54.27349
2021-08-04 20:34:01+00:00,247.0,6.55,243.0,8.31,13.76,47.59359,-54.27349
2021-08-04 20:44:01+00:00,238.0,7.51,235.0,8.77,13.76,47.59359,-54.27349
2021-08-04 20:54:01+00:00,239.0,6.01,242.0,6.86,13.76,47.59359,-54.27349
2021-08-04 21:04:01+00:00,236.0,5.65,242.0,6.17,13.76,47.59359,-54.27349
2021-08-04 21:14:01+00:00,241.0,6.53,235.0,8.87,13.68,47.59359,-54.27349
2021-08-04 21:24:01+00:00,247.0,8.55,253.0,9.97,13.68,47.59359,-54.27349
2021-08-04 21:34:01+00:00,254.0,7.43,252.0,8.39,13.68,47.59359,-54.27349
2021-08-04 21:44:01+00:00,253.0,7.85,252.0,9.07,13.68,47.59359,-54.27349
2021-08-04 21:54:01+00:00,253.0,7.94,249.0,9.49,13.68,47.59359,-54.27349
2021-08-04 22:04:01+00:00,249.0,7.37,248.0,7.96,13.68,47.59359,-54.27349
2021-08-04 22:14:01+00:00,256.0,8.43,255.0,9.42,13.44,47.59359,-54.27349
2021-08-04 22:24:01+00:00,254.0,8.99,255.0,9.64,13.44,47.59359,-54.27349
2021-08-04 22:34:01+00:00,261.0,8.45,261.0,9.15,13.44,47.59359,-54.27349
2021-08-04 22:44:01+00:00,263.0,8.06,266.0,9.01,13.44,47.59359,-54.27349
2021-08-04 22:54:01+00:00,267.0,9.16,271.0,10.06,13.44,47.59359,-54.27349
2021-08-04 23:04:01+00:00,264.0,8.27,265.0,9.57,13.44,47.59359,-54.27349
2021-08-04 23:14:01+00:00,262.0,8.57,257.0,9.9,12.97,47.59359,-54.27349
2021-08-04 23:24:01+00:00,265.0,7.08,264.0,8.03,12.97,47.59359,-54.27349
2021-08-04 23:34:01+00:00,261.0,8.16,261.0,9.43,12.97,47.59359,-54.27349
2021-08-04 23:44:01+00:00,265.0,7.27,265.0,7.95,12.97,47.59359,-54.27349
2021-08-04 23:54:01+00:00,270.0,7.03,273.0,8.05,12.97,47.59359,-54.27349
